Location: Berville
(49.1893°N, 2.0748°E)
Time: 05:59:37
(UTC+00:00)

Cosmos 2058 - Pass Details

Date: 08 February 2023
Orbit: 555 x 578 km, 82.5° (Epoch: 21 March)

Event Time Altitude Azimuth Distance (km) Brightness Sun altitude
Rises 19:38:51 0° 200° (SSW) 2,786 6.6 -26.3°
Reaches altitude 10° 19:41:05 10° 206° (SSW) 1,890 5.7 -26.7°
Enters shadow 19:44:22 45° 244° (WSW) 795 3.8 -27.2°
